Year,Month,Day,Hour,Minute,Value (Times are PST for temperature in C)
2015,06,21,00,00,14.90
2015,06,21,00,01,14.80
2015,06,21,00,02,14.80
2015,06,21,00,03,14.70
2015,06,21,00,04,14.70
2015,06,21,00,05,14.70
2015,06,21,00,06,14.60
2015,06,21,00,07,14.60
2015,06,21,00,08,14.50
2015,06,21,00,09,14.50
2015,06,21,00,10,14.40
2015,06,21,00,11,14.40
2015,06,21,00,12,14.40
2015,06,21,00,13,14.30
2015,06,21,00,14,14.30
2015,06,21,00,15,14.30
2015,06,21,00,16,14.20
2015,06,21,00,17,14.20
2015,06,21,00,18,14.20
2015,06,21,00,19,14.10
2015,06,21,00,20,14.10
2015,06,21,00,21,14.00
2015,06,21,00,22,14.00
2015,06,21,00,23,13.90
2015,06,21,00,24,13.90
2015,06,21,00,25,13.80
2015,06,21,00,26,13.80
2015,06,21,00,27,13.80
2015,06,21,00,28,13.70
2015,06,21,00,29,13.70
2015,06,21,00,30,13.70
2015,06,21,00,31,13.60
2015,06,21,00,32,13.60
2015,06,21,00,33,13.60
2015,06,21,00,34,13.50
2015,06,21,00,35,13.50
2015,06,21,00,36,13.40
2015,06,21,00,37,13.40
2015,06,21,00,38,13.40
2015,06,21,00,39,13.30
2015,06,21,00,40,13.30
2015,06,21,00,41,13.20
2015,06,21,00,42,13.20
2015,06,21,00,43,13.20
2015,06,21,00,44,13.10
2015,06,21,00,45,13.20
2015,06,21,00,46,13.20
2015,06,21,00,47,13.40
2015,06,21,00,48,13.60
2015,06,21,00,49,13.70
2015,06,21,00,50,13.90
2015,06,21,00,51,14.10
2015,06,21,00,52,14.30
2015,06,21,00,53,14.40
2015,06,21,00,54,14.40
2015,06,21,00,55,14.40
2015,06,21,00,56,14.30
2015,06,21,00,57,14.20
2015,06,21,00,58,14.10
2015,06,21,00,59,14.00
2015,06,21,01,00,13.90
2015,06,21,01,01,13.80
2015,06,21,01,02,13.80
2015,06,21,01,03,13.70
2015,06,21,01,04,13.60
2015,06,21,01,05,13.50
2015,06,21,01,06,13.40
2015,06,21,01,07,13.30
2015,06,21,01,08,13.20
2015,06,21,01,09,13.10
2015,06,21,01,10,13.10
2015,06,21,01,11,13.00
2015,06,21,01,12,13.00
2015,06,21,01,13,12.90
2015,06,21,01,14,12.80
2015,06,21,01,15,12.80
2015,06,21,01,16,12.70
2015,06,21,01,17,12.70
2015,06,21,01,18,12.60
2015,06,21,01,19,12.60
2015,06,21,01,20,12.50
2015,06,21,01,21,12.50
2015,06,21,01,22,12.40
2015,06,21,01,23,12.40
2015,06,21,01,24,12.30
2015,06,21,01,25,12.30
2015,06,21,01,26,12.30
2015,06,21,01,27,12.30
2015,06,21,01,28,12.20
2015,06,21,01,29,12.20
2015,06,21,01,30,12.20
2015,06,21,01,31,12.20
2015,06,21,01,32,12.20
2015,06,21,01,33,12.20
2015,06,21,01,34,12.10
2015,06,21,01,35,12.10
2015,06,21,01,36,12.00
2015,06,21,01,37,12.00
2015,06,21,01,38,11.90
2015,06,21,01,39,11.90
2015,06,21,01,40,11.90
2015,06,21,01,41,11.80
2015,06,21,01,42,11.80
2015,06,21,01,43,11.80
2015,06,21,01,44,11.80
2015,06,21,01,45,11.70
2015,06,21,01,46,11.70
2015,06,21,01,47,11.70
2015,06,21,01,48,11.60
2015,06,21,01,49,11.60
2015,06,21,01,50,11.50
2015,06,21,01,51,11.50
2015,06,21,01,52,11.40
2015,06,21,01,53,11.40
2015,06,21,01,54,11.40
2015,06,21,01,55,11.40
2015,06,21,01,56,11.40
2015,06,21,01,57,11.40
2015,06,21,01,58,11.40
2015,06,21,01,59,11.40
2015,06,21,02,00,11.40
2015,06,21,02,01,11.30
2015,06,21,02,02,11.30
2015,06,21,02,03,11.30
2015,06,21,02,04,11.30
2015,06,21,02,05,11.30
2015,06,21,02,06,11.30
2015,06,21,02,07,11.30
2015,06,21,02,08,11.30
2015,06,21,02,09,11.30
2015,06,21,02,10,11.30
2015,06,21,02,11,11.30
2015,06,21,02,12,11.30
2015,06,21,02,13,11.30
2015,06,21,02,14,11.30
2015,06,21,02,15,11.20
2015,06,21,02,16,11.20
2015,06,21,02,17,11.20
2015,06,21,02,18,11.20
2015,06,21,02,19,11.20
2015,06,21,02,20,11.20
2015,06,21,02,21,11.10
2015,06,21,02,22,11.10
2015,06,21,02,23,11.10
2015,06,21,02,24,11.10
2015,06,21,02,25,11.10
2015,06,21,02,26,11.10
2015,06,21,02,27,11.10
2015,06,21,02,28,11.10
2015,06,21,02,29,11.10
2015,06,21,02,30,11.10
2015,06,21,02,31,11.00
2015,06,21,02,32,10.90
2015,06,21,02,33,10.90
2015,06,21,02,34,10.90
2015,06,21,02,35,10.90
2015,06,21,02,36,10.90
2015,06,21,02,37,10.80
2015,06,21,02,38,10.80
2015,06,21,02,39,10.80
2015,06,21,02,40,10.80
2015,06,21,02,41,10.80
2015,06,21,02,42,10.80
2015,06,21,02,43,10.80
2015,06,21,02,44,10.70
2015,06,21,02,45,10.70
2015,06,21,02,46,10.70
2015,06,21,02,47,10.70
2015,06,21,02,48,10.70
2015,06,21,02,49,10.60
2015,06,21,02,50,10.60
2015,06,21,02,51,10.60
2015,06,21,02,52,10.60
2015,06,21,02,53,10.60
2015,06,21,02,54,10.50
2015,06,21,02,55,10.50
2015,06,21,02,56,10.50
2015,06,21,02,57,10.50
2015,06,21,02,58,10.50
2015,06,21,02,59,10.50
2015,06,21,03,00,10.50
2015,06,21,03,01,10.50
2015,06,21,03,02,10.50
2015,06,21,03,03,10.60
2015,06,21,03,04,10.60
2015,06,21,03,05,10.60
2015,06,21,03,06,10.60
2015,06,21,03,07,10.60
2015,06,21,03,08,10.60
2015,06,21,03,09,10.60
2015,06,21,03,10,10.60
2015,06,21,03,11,10.60
2015,06,21,03,12,10.60
2015,06,21,03,13,10.60
2015,06,21,03,14,10.60
2015,06,21,03,15,10.60
2015,06,21,03,16,10.60
2015,06,21,03,17,10.60
2015,06,21,03,18,10.60
2015,06,21,03,19,10.60
2015,06,21,03,20,10.60
2015,06,21,03,21,10.50
2015,06,21,03,22,10.50
2015,06,21,03,23,10.50
2015,06,21,03,24,10.40
2015,06,21,03,25,10.40
2015,06,21,03,26,10.40
2015,06,21,03,27,10.30
2015,06,21,03,28,10.30
2015,06,21,03,29,10.20
2015,06,21,03,30,10.20
2015,06,21,03,31,10.20
2015,06,21,03,32,10.10
2015,06,21,03,33,10.10
2015,06,21,03,34,10.10
2015,06,21,03,35,10.10
2015,06,21,03,36,10.10
2015,06,21,03,37,10.10
2015,06,21,03,38,10.10
2015,06,21,03,39,10.10
2015,06,21,03,40,10.10
2015,06,21,03,41,10.10
2015,06,21,03,42,10.10
2015,06,21,03,43,10.10
2015,06,21,03,44,10.10
2015,06,21,03,45,10.10
2015,06,21,03,46,10.10
2015,06,21,03,47,10.10
2015,06,21,03,48,10.00
2015,06,21,03,49,10.00
2015,06,21,03,50,10.00
2015,06,21,03,51,9.90
2015,06,21,03,52,9.90
2015,06,21,03,53,9.90
2015,06,21,03,54,9.80
2015,06,21,03,55,9.80
2015,06,21,03,56,9.80
2015,06,21,03,57,9.80
2015,06,21,03,58,9.70
2015,06,21,03,59,9.70
2015,06,21,04,00,9.70
2015,06,21,04,01,9.60
2015,06,21,04,02,9.60
2015,06,21,04,03,9.60
2015,06,21,04,04,9.60
2015,06,21,04,05,9.60
2015,06,21,04,06,9.50
2015,06,21,04,07,9.50
2015,06,21,04,08,9.50
2015,06,21,04,09,9.50
2015,06,21,04,10,9.50
2015,06,21,04,11,9.40
2015,06,21,04,12,9.40
2015,06,21,04,13,9.40
2015,06,21,04,14,9.40
2015,06,21,04,15,9.40
2015,06,21,04,16,9.40
2015,06,21,04,17,9.40
2015,06,21,04,18,9.40
2015,06,21,04,19,9.40
2015,06,21,04,20,9.40
2015,06,21,04,21,9.40
2015,06,21,04,22,9.40
2015,06,21,04,23,9.40
2015,06,21,04,24,9.40
2015,06,21,04,25,9.40
2015,06,21,04,26,9.40
2015,06,21,04,27,9.40
2015,06,21,04,28,9.40
2015,06,21,04,29,9.40
2015,06,21,04,30,9.40
2015,06,21,04,31,9.40
2015,06,21,04,32,9.30
2015,06,21,04,33,9.30
2015,06,21,04,34,9.30
2015,06,21,04,35,9.30
2015,06,21,04,36,9.30
2015,06,21,04,37,9.20
2015,06,21,04,38,9.20
2015,06,21,04,39,9.20
2015,06,21,04,40,9.20
2015,06,21,04,41,9.20
2015,06,21,04,42,9.20
2015,06,21,04,43,9.20
2015,06,21,04,44,9.20
2015,06,21,04,45,9.20
2015,06,21,04,46,9.10
2015,06,21,04,47,9.10
2015,06,21,04,48,9.10
2015,06,21,04,49,9.10
2015,06,21,04,50,9.10
2015,06,21,04,51,9.10
2015,06,21,04,52,9.10
2015,06,21,04,53,9.10
2015,06,21,04,54,9.00
2015,06,21,04,55,9.00
2015,06,21,04,56,9.00
2015,06,21,04,57,9.00
2015,06,21,04,58,9.00
2015,06,21,04,59,9.00
2015,06,21,05,00,8.90
2015,06,21,05,01,8.90
2015,06,21,05,02,8.90
2015,06,21,05,03,8.90
2015,06,21,05,04,8.90
2015,06,21,05,05,8.90
2015,06,21,05,06,8.90
2015,06,21,05,07,8.80
2015,06,21,05,08,8.80
2015,06,21,05,09,8.80
2015,06,21,05,10,8.80
2015,06,21,05,11,8.80
2015,06,21,05,12,8.80
2015,06,21,05,13,8.80
2015,06,21,05,14,8.70
2015,06,21,05,15,8.70
2015,06,21,05,16,8.70
2015,06,21,05,17,8.70
2015,06,21,05,18,8.70
2015,06,21,05,19,8.70
2015,06,21,05,20,8.70
2015,06,21,05,21,8.70
2015,06,21,05,22,8.70
2015,06,21,05,23,8.70
2015,06,21,05,24,8.70
2015,06,21,05,25,8.70
2015,06,21,05,26,8.70
2015,06,21,05,27,8.70
2015,06,21,05,28,8.70
2015,06,21,05,29,8.70
2015,06,21,05,30,8.70
2015,06,21,05,31,8.70
2015,06,21,05,32,8.70
2015,06,21,05,33,8.70
2015,06,21,05,34,8.70
2015,06,21,05,35,8.70
2015,06,21,05,36,8.70
2015,06,21,05,37,8.70
2015,06,21,05,38,8.70
2015,06,21,05,39,8.80
2015,06,21,05,40,8.80
2015,06,21,05,41,8.80
2015,06,21,05,42,8.80
2015,06,21,05,43,8.80
2015,06,21,05,44,8.80
2015,06,21,05,45,8.80
2015,06,21,05,46,8.80
2015,06,21,05,47,8.80
2015,06,21,05,48,8.80
2015,06,21,05,49,8.80
2015,06,21,05,50,8.80
2015,06,21,05,51,8.80
2015,06,21,05,52,8.80
2015,06,21,05,53,8.80
2015,06,21,05,54,8.80
2015,06,21,05,55,8.80
2015,06,21,05,56,8.80
2015,06,21,05,57,8.80
2015,06,21,05,58,8.80
2015,06,21,05,59,8.80
2015,06,21,06,00,8.80
2015,06,21,06,01,8.80
2015,06,21,06,02,8.80
2015,06,21,06,03,8.80
2015,06,21,06,04,8.80
2015,06,21,06,05,8.90
2015,06,21,06,06,8.90
2015,06,21,06,07,8.90
2015,06,21,06,08,8.90
2015,06,21,06,09,8.90
2015,06,21,06,10,8.90
2015,06,21,06,11,8.90
2015,06,21,06,12,8.90
2015,06,21,06,13,8.90
2015,06,21,06,14,8.90
2015,06,21,06,15,8.90
2015,06,21,06,16,8.90
2015,06,21,06,17,8.90
2015,06,21,06,18,8.90
2015,06,21,06,19,8.90
2015,06,21,06,20,8.90
2015,06,21,06,21,9.00
2015,06,21,06,22,9.00
2015,06,21,06,23,9.00
2015,06,21,06,24,9.10
2015,06,21,06,25,9.10
2015,06,21,06,26,9.10
2015,06,21,06,27,9.20
2015,06,21,06,28,9.20
2015,06,21,06,29,9.20
2015,06,21,06,30,9.30
2015,06,21,06,31,9.30
2015,06,21,06,32,9.30
2015,06,21,06,33,9.30
2015,06,21,06,34,9.30
2015,06,21,06,35,9.40
2015,06,21,06,36,9.40
2015,06,21,06,37,9.40
2015,06,21,06,38,9.50
2015,06,21,06,39,9.50
2015,06,21,06,40,9.60
2015,06,21,06,41,9.60
2015,06,21,06,42,9.60
2015,06,21,06,43,9.70
2015,06,21,06,44,9.70
2015,06,21,06,45,9.70
2015,06,21,06,46,9.70
2015,06,21,06,47,9.80
2015,06,21,06,48,9.80
2015,06,21,06,49,9.80
2015,06,21,06,50,9.80
2015,06,21,06,51,9.90
2015,06,21,06,52,9.90
2015,06,21,06,53,9.90
2015,06,21,06,54,10.00
2015,06,21,06,55,10.00
2015,06,21,06,56,10.10
2015,06,21,06,57,10.10
2015,06,21,06,58,10.20
2015,06,21,06,59,10.20
2015,06,21,07,00,10.20
2015,06,21,07,01,10.30
2015,06,21,07,02,10.30
2015,06,21,07,03,10.40
2015,06,21,07,04,10.50
2015,06,21,07,05,10.60
2015,06,21,07,06,10.70
2015,06,21,07,07,10.80
2015,06,21,07,08,10.80
2015,06,21,07,09,10.90
2015,06,21,07,10,11.00
2015,06,21,07,11,11.00
2015,06,21,07,12,11.00
2015,06,21,07,13,11.10
2015,06,21,07,14,11.10
2015,06,21,07,15,11.10
2015,06,21,07,16,11.20
2015,06,21,07,17,11.30
2015,06,21,07,18,11.30
2015,06,21,07,19,11.30
2015,06,21,07,20,11.30
2015,06,21,07,21,11.40
2015,06,21,07,22,11.40
2015,06,21,07,23,11.50
2015,06,21,07,24,11.50
2015,06,21,07,25,11.60
2015,06,21,07,26,11.70
2015,06,21,07,27,11.80
2015,06,21,07,28,11.80
2015,06,21,07,29,11.90
2015,06,21,07,30,11.90
2015,06,21,07,31,12.00
2015,06,21,07,32,12.00
2015,06,21,07,33,12.00
2015,06,21,07,34,12.10
2015,06,21,07,35,12.10
2015,06,21,07,36,12.20
2015,06,21,07,37,12.30
2015,06,21,07,38,12.40
2015,06,21,07,39,12.50
2015,06,21,07,40,12.60
2015,06,21,07,41,12.70
2015,06,21,07,42,12.80
2015,06,21,07,43,12.90
2015,06,21,07,44,12.90
2015,06,21,07,45,13.00
2015,06,21,07,46,13.00
2015,06,21,07,47,13.10
2015,06,21,07,48,13.10
2015,06,21,07,49,13.20
2015,06,21,07,50,13.30
2015,06,21,07,51,13.30
2015,06,21,07,52,13.40
2015,06,21,07,53,13.50
2015,06,21,07,54,13.60
2015,06,21,07,55,13.60
2015,06,21,07,56,13.70
2015,06,21,07,57,13.80
2015,06,21,07,58,14.00
2015,06,21,07,59,14.10
2015,06,21,08,00,14.20
2015,06,21,08,01,14.30
2015,06,21,08,02,14.40
2015,06,21,08,03,14.40
2015,06,21,08,04,14.50
2015,06,21,08,05,14.50
2015,06,21,08,06,14.50
2015,06,21,08,07,14.60
2015,06,21,08,08,14.60
2015,06,21,08,09,14.70
2015,06,21,08,10,14.70
2015,06,21,08,11,14.70
2015,06,21,08,12,14.70
2015,06,21,08,13,14.80
2015,06,21,08,14,14.80
2015,06,21,08,15,14.80
2015,06,21,08,16,14.90
2015,06,21,08,17,15.00
2015,06,21,08,18,15.00
2015,06,21,08,19,15.10
2015,06,21,08,20,15.10
2015,06,21,08,21,15.10
2015,06,21,08,22,15.20
2015,06,21,08,23,15.20
2015,06,21,08,24,15.20
2015,06,21,08,25,15.30
2015,06,21,08,26,15.30
2015,06,21,08,27,15.30
2015,06,21,08,28,15.30
2015,06,21,08,29,15.30
2015,06,21,08,30,15.40
2015,06,21,08,31,15.50
2015,06,21,08,32,15.60
2015,06,21,08,33,15.60
2015,06,21,08,34,15.70
2015,06,21,08,35,15.80
2015,06,21,08,36,15.80
2015,06,21,08,37,15.90
2015,06,21,08,38,15.90
2015,06,21,08,39,16.00
2015,06,21,08,40,16.00
2015,06,21,08,41,16.10
2015,06,21,08,42,16.10
2015,06,21,08,43,16.10
2015,06,21,08,44,16.20
2015,06,21,08,45,16.30
2015,06,21,08,46,16.40
2015,06,21,08,47,16.40
2015,06,21,08,48,16.40
2015,06,21,08,49,16.40
2015,06,21,08,50,16.50
2015,06,21,08,51,16.60
2015,06,21,08,52,16.60
2015,06,21,08,53,16.60
2015,06,21,08,54,16.70
2015,06,21,08,55,16.70
2015,06,21,08,56,16.70
2015,06,21,08,57,16.80
2015,06,21,08,58,16.80
2015,06,21,08,59,16.90
2015,06,21,09,00,16.90
2015,06,21,09,01,17.00
2015,06,21,09,02,17.10
2015,06,21,09,03,17.10
2015,06,21,09,04,17.20
2015,06,21,09,05,17.20
2015,06,21,09,06,17.30
2015,06,21,09,07,17.40
2015,06,21,09,08,17.50
2015,06,21,09,09,17.60
2015,06,21,09,10,17.60
2015,06,21,09,11,17.70
2015,06,21,09,12,17.80
2015,06,21,09,13,17.90
2015,06,21,09,14,18.00
2015,06,21,09,15,18.10
2015,06,21,09,16,18.20
2015,06,21,09,17,18.20
2015,06,21,09,18,18.30
2015,06,21,09,19,18.30
2015,06,21,09,20,18.40
2015,06,21,09,21,18.50
2015,06,21,09,22,18.60
2015,06,21,09,23,18.70
2015,06,21,09,24,18.70
2015,06,21,09,25,18.80
2015,06,21,09,26,18.80
2015,06,21,09,27,18.80
2015,06,21,09,28,18.90
2015,06,21,09,29,18.90
2015,06,21,09,30,19.00
2015,06,21,09,31,19.00
2015,06,21,09,32,19.10
2015,06,21,09,33,19.00
2015,06,21,09,34,19.00
2015,06,21,09,35,18.90
2015,06,21,09,36,18.90
2015,06,21,09,37,18.90
2015,06,21,09,38,18.90
2015,06,21,09,39,18.90
2015,06,21,09,40,18.90
2015,06,21,09,41,18.90
2015,06,21,09,42,18.90
2015,06,21,09,43,18.90
2015,06,21,09,44,19.00
2015,06,21,09,45,19.00
2015,06,21,09,46,19.10
2015,06,21,09,47,19.10
2015,06,21,09,48,19.10
2015,06,21,09,49,19.10
2015,06,21,09,50,19.10
2015,06,21,09,51,19.20
2015,06,21,09,52,19.20
2015,06,21,09,53,19.20
2015,06,21,09,54,19.10
2015,06,21,09,55,19.10
2015,06,21,09,56,19.10
2015,06,21,09,57,19.10
2015,06,21,09,58,19.10
2015,06,21,09,59,19.20
2015,06,21,10,00,19.20
2015,06,21,10,01,19.20
2015,06,21,10,02,19.20
2015,06,21,10,03,19.30
2015,06,21,10,04,19.30
2015,06,21,10,05,19.40
2015,06,21,10,06,19.50
2015,06,21,10,07,19.50
2015,06,21,10,08,19.60
2015,06,21,10,09,19.70
2015,06,21,10,10,19.70
2015,06,21,10,11,19.70
2015,06,21,10,12,19.70
2015,06,21,10,13,19.70
2015,06,21,10,14,19.60
2015,06,21,10,15,19.60
2015,06,21,10,16,19.60
2015,06,21,10,17,19.70
2015,06,21,10,18,19.70
2015,06,21,10,19,19.70
2015,06,21,10,20,19.80
2015,06,21,10,21,19.80
2015,06,21,10,22,19.80
2015,06,21,10,23,19.90
2015,06,21,10,24,19.90
2015,06,21,10,25,19.90
2015,06,21,10,26,20.00
2015,06,21,10,27,20.00
2015,06,21,10,28,20.10
2015,06,21,10,29,20.10
2015,06,21,10,30,20.20
2015,06,21,10,31,20.20
2015,06,21,10,32,20.30
2015,06,21,10,33,20.40
2015,06,21,10,34,20.50
2015,06,21,10,35,20.50
2015,06,21,10,36,20.60
2015,06,21,10,37,20.60
2015,06,21,10,38,20.70
2015,06,21,10,39,20.70
2015,06,21,10,40,20.70
2015,06,21,10,41,20.80
2015,06,21,10,42,20.90
2015,06,21,10,43,20.90
2015,06,21,10,44,21.00
2015,06,21,10,45,21.10
2015,06,21,10,46,21.20
2015,06,21,10,47,21.20
2015,06,21,10,48,21.30
2015,06,21,10,49,21.40
2015,06,21,10,50,21.60
2015,06,21,10,51,21.60
2015,06,21,10,52,21.70
2015,06,21,10,53,21.80
2015,06,21,10,54,21.80
2015,06,21,10,55,21.80
2015,06,21,10,56,21.70
2015,06,21,10,57,21.60
2015,06,21,10,58,21.60
2015,06,21,10,59,21.60
2015,06,21,11,00,21.60
2015,06,21,11,01,21.60
2015,06,21,11,02,21.70
2015,06,21,11,03,21.80
2015,06,21,11,04,21.90
2015,06,21,11,05,22.10
2015,06,21,11,06,22.10
2015,06,21,11,07,22.10
2015,06,21,11,08,22.00
2015,06,21,11,09,22.00
2015,06,21,11,10,22.00
2015,06,21,11,11,22.00
2015,06,21,11,12,22.00
2015,06,21,11,13,22.00
2015,06,21,11,14,22.00
2015,06,21,11,15,22.00
2015,06,21,11,16,22.00
2015,06,21,11,17,22.00
2015,06,21,11,18,22.00
2015,06,21,11,19,22.10
2015,06,21,11,20,22.10
2015,06,21,11,21,22.10
2015,06,21,11,22,22.00
2015,06,21,11,23,22.00
2015,06,21,11,24,22.00
2015,06,21,11,25,22.00
2015,06,21,11,26,22.00
2015,06,21,11,27,22.00
2015,06,21,11,28,22.00
2015,06,21,11,29,22.00
2015,06,21,11,30,21.90
2015,06,21,11,31,21.90
2015,06,21,11,32,21.90
2015,06,21,11,33,22.00
2015,06,21,11,34,22.10
2015,06,21,11,35,22.10
2015,06,21,11,36,22.10
2015,06,21,11,37,22.10
2015,06,21,11,38,22.20
2015,06,21,11,39,22.20
2015,06,21,11,40,22.20
2015,06,21,11,41,22.30
2015,06,21,11,42,22.30
2015,06,21,11,43,22.30
2015,06,21,11,44,22.30
2015,06,21,11,45,22.40
2015,06,21,11,46,22.40
2015,06,21,11,47,22.50
2015,06,21,11,48,22.50
2015,06,21,11,49,22.60
2015,06,21,11,50,22.70
2015,06,21,11,51,22.80
2015,06,21,11,52,22.80
2015,06,21,11,53,22.80
2015,06,21,11,54,22.80
2015,06,21,11,55,22.80
2015,06,21,11,56,22.80
2015,06,21,11,57,22.80
2015,06,21,11,58,22.80
2015,06,21,11,59,22.80
2015,06,21,12,00,22.80
2015,06,21,12,01,22.80
2015,06,21,12,02,22.80
2015,06,21,12,03,22.90
2015,06,21,12,04,23.00
2015,06,21,12,05,23.00
2015,06,21,12,06,22.90
2015,06,21,12,07,22.90
2015,06,21,12,08,22.90
2015,06,21,12,09,22.90
2015,06,21,12,10,22.90
2015,06,21,12,11,22.90
2015,06,21,12,12,23.00
2015,06,21,12,13,23.00
2015,06,21,12,14,23.00
2015,06,21,12,15,23.00
2015,06,21,12,16,23.10
2015,06,21,12,17,23.10
2015,06,21,12,18,23.10
2015,06,21,12,19,23.00
2015,06,21,12,20,23.00
2015,06,21,12,21,23.00
2015,06,21,12,22,23.00
2015,06,21,12,23,23.10
2015,06,21,12,24,23.10
2015,06,21,12,25,23.20
2015,06,21,12,26,23.20
2015,06,21,12,27,23.20
2015,06,21,12,28,23.30
2015,06,21,12,29,23.30
2015,06,21,12,30,23.40
2015,06,21,12,31,23.40
2015,06,21,12,32,23.50
2015,06,21,12,33,23.50
2015,06,21,12,34,23.50
2015,06,21,12,35,23.50
2015,06,21,12,36,23.60
2015,06,21,12,37,23.70
2015,06,21,12,38,23.80
2015,06,21,12,39,23.90
2015,06,21,12,40,24.00
2015,06,21,12,41,24.10
2015,06,21,12,42,24.00
2015,06,21,12,43,23.90
2015,06,21,12,44,23.80
2015,06,21,12,45,23.80
2015,06,21,12,46,23.80
2015,06,21,12,47,23.70
2015,06,21,12,48,23.70
2015,06,21,12,49,23.80
2015,06,21,12,50,23.80
2015,06,21,12,51,23.80
2015,06,21,12,52,23.80
2015,06,21,12,53,23.80
2015,06,21,12,54,23.80
2015,06,21,12,55,23.70
2015,06,21,12,56,23.70
2015,06,21,12,57,23.80
2015,06,21,12,58,23.80
2015,06,21,12,59,23.90
2015,06,21,13,00,23.90
2015,06,21,13,01,23.90
2015,06,21,13,02,24.00
2015,06,21,13,03,24.10
2015,06,21,13,04,24.10
2015,06,21,13,05,24.10
2015,06,21,13,06,24.10
2015,06,21,13,07,24.10
2015,06,21,13,08,24.10
2015,06,21,13,09,24.20
2015,06,21,13,10,24.20
2015,06,21,13,11,24.20
2015,06,21,13,12,24.20
2015,06,21,13,13,24.20
2015,06,21,13,14,24.30
2015,06,21,13,15,24.30
2015,06,21,13,16,24.30
2015,06,21,13,17,24.30
2015,06,21,13,18,24.40
2015,06,21,13,19,24.40
2015,06,21,13,20,24.50
2015,06,21,13,21,24.50
2015,06,21,13,22,24.60
2015,06,21,13,23,24.50
2015,06,21,13,24,24.50
2015,06,21,13,25,24.50
2015,06,21,13,26,24.40
2015,06,21,13,27,24.30
2015,06,21,13,28,24.30
2015,06,21,13,29,24.20
2015,06,21,13,30,24.20
2015,06,21,13,31,24.20
2015,06,21,13,32,24.30
2015,06,21,13,33,24.40
2015,06,21,13,34,24.40
2015,06,21,13,35,24.40
2015,06,21,13,36,24.40
2015,06,21,13,37,24.40
2015,06,21,13,38,24.40
2015,06,21,13,39,24.40
2015,06,21,13,40,24.40
2015,06,21,13,41,24.40
2015,06,21,13,42,24.40
2015,06,21,13,43,24.50
2015,06,21,13,44,24.60
2015,06,21,13,45,24.60
2015,06,21,13,46,24.60
2015,06,21,13,47,24.60
2015,06,21,13,48,24.60
2015,06,21,13,49,24.60
2015,06,21,13,50,24.70
2015,06,21,13,51,24.80
2015,06,21,13,52,24.70
2015,06,21,13,53,24.70
2015,06,21,13,54,24.70
2015,06,21,13,55,24.60
2015,06,21,13,56,24.60
2015,06,21,13,57,24.70
2015,06,21,13,58,24.70
2015,06,21,13,59,24.80
2015,06,21,14,00,24.90
2015,06,21,14,01,24.90
2015,06,21,14,02,24.90
2015,06,21,14,03,24.90
2015,06,21,14,04,24.90
2015,06,21,14,05,24.90
2015,06,21,14,06,24.90
2015,06,21,14,07,24.90
2015,06,21,14,08,25.00
2015,06,21,14,09,25.10
2015,06,21,14,10,25.20
2015,06,21,14,11,25.20
2015,06,21,14,12,25.20
2015,06,21,14,13,25.20
2015,06,21,14,14,25.20
2015,06,21,14,15,25.30
2015,06,21,14,16,25.30
2015,06,21,14,17,25.40
2015,06,21,14,18,25.50
2015,06,21,14,19,25.60
2015,06,21,14,20,25.70
2015,06,21,14,21,25.70
2015,06,21,14,22,25.70
2015,06,21,14,23,25.70
2015,06,21,14,24,25.80
2015,06,21,14,25,25.80
2015,06,21,14,26,25.80
2015,06,21,14,27,25.80
2015,06,21,14,28,25.80
2015,06,21,14,29,25.80
2015,06,21,14,30,25.80
2015,06,21,14,31,26.00
2015,06,21,14,32,26.10
2015,06,21,14,33,26.10
2015,06,21,14,34,26.10
2015,06,21,14,35,26.00
2015,06,21,14,36,25.90
2015,06,21,14,37,25.80
2015,06,21,14,38,25.80
2015,06,21,14,39,25.70
2015,06,21,14,40,25.70
2015,06,21,14,41,25.70
2015,06,21,14,42,25.70
2015,06,21,14,43,25.70
2015,06,21,14,44,25.80
2015,06,21,14,45,25.80
2015,06,21,14,46,25.80
2015,06,21,14,47,25.80
2015,06,21,14,48,25.80
2015,06,21,14,49,25.70
2015,06,21,14,50,25.70
2015,06,21,14,51,25.70
2015,06,21,14,52,25.70
2015,06,21,14,53,25.70
2015,06,21,14,54,25.90
2015,06,21,14,55,26.00
2015,06,21,14,56,26.10
2015,06,21,14,57,26.10
2015,06,21,14,58,26.00
2015,06,21,14,59,26.00
2015,06,21,15,00,25.90
2015,06,21,15,01,25.90
2015,06,21,15,02,25.90
2015,06,21,15,03,25.90
2015,06,21,15,04,25.90
2015,06,21,15,05,26.00
2015,06,21,15,06,26.00
2015,06,21,15,07,26.00
2015,06,21,15,08,26.10
2015,06,21,15,09,26.10
2015,06,21,15,10,26.10
2015,06,21,15,11,26.00
2015,06,21,15,12,26.00
2015,06,21,15,13,26.00
2015,06,21,15,14,26.00
2015,06,21,15,15,26.00
2015,06,21,15,16,26.10
2015,06,21,15,17,26.20
2015,06,21,15,18,26.20
2015,06,21,15,19,26.30
2015,06,21,15,20,26.40
2015,06,21,15,21,26.40
2015,06,21,15,22,26.40
2015,06,21,15,23,26.40
2015,06,21,15,24,26.40
2015,06,21,15,25,26.50
2015,06,21,15,26,26.50
2015,06,21,15,27,26.50
2015,06,21,15,28,26.50
2015,06,21,15,29,26.40
2015,06,21,15,30,26.40
2015,06,21,15,31,26.40
2015,06,21,15,32,26.40
2015,06,21,15,33,26.50
2015,06,21,15,34,26.60
2015,06,21,15,35,26.70
2015,06,21,15,36,26.80
2015,06,21,15,37,26.80
2015,06,21,15,38,26.80
2015,06,21,15,39,26.80
2015,06,21,15,40,26.90
2015,06,21,15,41,26.90
2015,06,21,15,42,26.80
2015,06,21,15,43,26.80
2015,06,21,15,44,26.80
2015,06,21,15,45,26.80
2015,06,21,15,46,26.80
2015,06,21,15,47,26.80
2015,06,21,15,48,26.80
2015,06,21,15,49,26.90
2015,06,21,15,50,27.00
2015,06,21,15,51,27.10
2015,06,21,15,52,27.10
2015,06,21,15,53,27.10
2015,06,21,15,54,27.20
2015,06,21,15,55,27.20
2015,06,21,15,56,27.20
2015,06,21,15,57,27.30
2015,06,21,15,58,27.30
2015,06,21,15,59,27.40
2015,06,21,16,00,27.40
2015,06,21,16,01,27.40
2015,06,21,16,02,27.30
2015,06,21,16,03,27.40
2015,06,21,16,04,27.40
2015,06,21,16,05,27.30
2015,06,21,16,06,27.30
2015,06,21,16,07,27.20
2015,06,21,16,08,27.10
2015,06,21,16,09,27.00
2015,06,21,16,10,26.90
2015,06,21,16,11,26.90
2015,06,21,16,12,26.90
2015,06,21,16,13,26.90
2015,06,21,16,14,26.80
2015,06,21,16,15,26.80
2015,06,21,16,16,26.80
2015,06,21,16,17,26.70
2015,06,21,16,18,26.60
2015,06,21,16,19,26.60
2015,06,21,16,20,26.60
2015,06,21,16,21,26.50
2015,06,21,16,22,26.50
2015,06,21,16,23,26.50
2015,06,21,16,24,26.40
2015,06,21,16,25,26.30
2015,06,21,16,26,26.30
2015,06,21,16,27,26.30
2015,06,21,16,28,26.30
2015,06,21,16,29,26.30
2015,06,21,16,30,26.40
2015,06,21,16,31,26.40
2015,06,21,16,32,26.40
2015,06,21,16,33,26.30
2015,06,21,16,34,26.10
2015,06,21,16,35,26.10
2015,06,21,16,36,26.20
2015,06,21,16,37,26.30
2015,06,21,16,38,26.30
2015,06,21,16,39,26.30
2015,06,21,16,40,26.20
2015,06,21,16,41,26.20
2015,06,21,16,42,26.20
2015,06,21,16,43,26.30
2015,06,21,16,44,26.30
2015,06,21,16,45,26.30
2015,06,21,16,46,26.20
2015,06,21,16,47,26.10
2015,06,21,16,48,26.10
2015,06,21,16,49,26.00
2015,06,21,16,50,25.90
2015,06,21,16,51,25.90
2015,06,21,16,52,25.90
2015,06,21,16,53,26.00
2015,06,21,16,54,26.10
2015,06,21,16,55,26.20
2015,06,21,16,56,26.20
2015,06,21,16,57,26.30
2015,06,21,16,58,26.30
2015,06,21,16,59,26.30
2015,06,21,17,00,26.30
2015,06,21,17,01,26.30
2015,06,21,17,02,26.30
2015,06,21,17,03,26.30
2015,06,21,17,04,26.30
2015,06,21,17,05,26.20
2015,06,21,17,06,26.20
2015,06,21,17,07,26.20
2015,06,21,17,08,26.20
2015,06,21,17,09,26.30
2015,06,21,17,10,26.30
2015,06,21,17,11,26.30
2015,06,21,17,12,26.30
2015,06,21,17,13,26.40
2015,06,21,17,14,26.30
2015,06,21,17,15,26.20
2015,06,21,17,16,26.20
2015,06,21,17,17,26.10
2015,06,21,17,18,26.00
2015,06,21,17,19,25.90
2015,06,21,17,20,25.90
2015,06,21,17,21,25.90
2015,06,21,17,22,25.90
2015,06,21,17,23,25.90
2015,06,21,17,24,26.00
2015,06,21,17,25,26.10
2015,06,21,17,26,26.20
2015,06,21,17,27,26.30